Location: Bittkow
(50.3000°N, 19.0000°E)
Time: 02:20:09
(UTC+00:00)

ARIANE 5 R/B - Pass Details

Date: 19 September 2020
Orbit: 748 x 796 km, 98.6° (Epoch: 30 October)

Event Time Altitude Azimuth Distance (km) Brightness Sun altitude
Rises 01:52:56 0° 14° (NNE) 3,271 6.5 -23.7°
Reaches altitude 10° 01:55:16 10° 14° (NNE) 2,332 5.6 -23.4°
Maximum altitude 02:00:25 88° 289° (WNW) 774 2.4 -22.8°
Enters shadow 02:01:50 49° 199° (SSW) 980 2.7 -22.6°
